Zurück zum Katalog

STARLINK-30533

AktivKommunikationVLEO
NORAD 58037·PAYLOAD·🇺🇸 United States

Gestartet Oct 9, 2023 von Vandenberg Space Force Base

Loading…

Nächste Überflüge (nächste 24 Stunden)

TLE

AktuellSource: CelesTrak SupGP

Epoche: Sep 15, 2026, 02:05 UTC

1 58037C 23156K   26258.08729167  .00043029  00000+0  12709-2 0  2589
2 58037  53.1592   5.1391 0001072  84.9590  32.1773 15.34380789    16

Verfolge STARLINK-30533 in Echtzeit mit AllMySat

Download on the App Store